Location: Newark
(48.1281°N, 2.1556°W)
Time: 04:41:23
(UTC+00:00)

Envisat - Pass Details

Date: 24 November 2019
Orbit: 764 x 766 km, 98.1° (Epoch: 15 December)

Event Time Altitude Azimuth Distance (km) Brightness Sun altitude
Rises 17:30:48 0° 150° (SSE) 3,222 6.1 -11.3°
Reaches altitude 10° 17:33:08 10° 146° (SSE) 2,300 5.3 -11.6°
Maximum altitude 17:38:04 54° 70° (ENE) 926 3.1 -12.4°
Drops below altitude 10° 17:43:02 10° 354° (N) 2,314 5.4 -13.2°
Sets 17:45:23 0° 350° (N) 3,245 6.2 -13.6°
